Time,TemperatureF,DewpointF,PressureIn,WindDirection,WindDirectionDegrees,WindSpeedMPH,WindSpeedGustMPH,Humidity,HourlyPrecipIn,Conditions,Clouds,dailyrainin,SolarRadiationWatts/m^2,SoftwareType,DateUTC
2013-05-05 00:02:00,63.0,61.0,-100.00,SE,135,3.0,10.0,94,0.00,,,0.00,0.000000,,2013-05-05 10:02:00,
2013-05-05 00:12:00,63.0,61.0,-100.00,SE,135,3.0,10.0,94,0.00,,,0.00,0.000000,,2013-05-05 10:12:00,
2013-05-05 00:22:00,63.0,61.0,-100.00,SE,135,3.0,10.0,94,0.00,,,0.00,0.000000,,2013-05-05 10:22:00,
2013-05-05 00:32:00,63.0,61.0,-100.00,SE,135,3.0,10.0,94,0.00,,,0.00,0.000000,,2013-05-05 10:32:00,
2013-05-05 01:01:00,62.0,58.0,-100.00,SE,137,5.0,11.0,87,0.00,,,0.00,0.000000,,2013-05-05 11:01:00,
2013-05-05 01:11:00,62.0,58.0,-100.00,SE,137,5.0,11.0,87,0.00,,,0.00,0.000000,,2013-05-05 11:11:00,
2013-05-05 01:21:00,62.0,58.0,-100.00,SE,137,5.0,11.0,87,0.00,,,0.00,0.000000,,2013-05-05 11:21:00,
2013-05-05 01:32:00,62.0,58.0,-100.00,SE,137,5.0,11.0,87,0.00,,,0.00,0.000000,,2013-05-05 11:32:00,
2013-05-05 02:02:00,61.0,59.0,-100.00,SE,129,3.0,8.0,92,0.00,,,0.00,0.000000,,2013-05-05 12:02:00,
2013-05-05 02:11:00,61.0,59.0,-100.00,SE,129,3.0,8.0,92,0.00,,,0.00,0.000000,,2013-05-05 12:11:00,
2013-05-05 02:21:00,61.0,59.0,-100.00,SE,129,3.0,8.0,92,0.00,,,0.00,0.000000,,2013-05-05 12:21:00,
2013-05-05 02:31:00,61.0,59.0,-100.00,SE,129,3.0,8.0,92,0.00,,,0.00,0.000000,,2013-05-05 12:31:00,
2013-05-05 03:01:00,62.0,60.0,-100.00,SE,131,3.0,7.0,93,0.00,,,0.00,0.000000,,2013-05-05 13:01:00,
2013-05-05 03:11:00,62.0,60.0,-100.00,SE,131,3.0,7.0,93,0.00,,,0.00,0.000000,,2013-05-05 13:11:00,
2013-05-05 03:21:00,62.0,60.0,-100.00,SE,131,3.0,7.0,93,0.00,,,0.00,0.000000,,2013-05-05 13:21:00,
2013-05-05 03:32:00,62.0,60.0,-100.00,SE,131,3.0,7.0,93,0.00,,,0.00,0.000000,,2013-05-05 13:32:00,
2013-05-05 04:01:00,63.0,59.0,-100.00,SE,138,3.0,8.0,87,0.00,,,0.00,0.000000,,2013-05-05 14:01:00,
2013-05-05 04:11:00,63.0,59.0,-100.00,SE,138,3.0,8.0,87,0.00,,,0.00,0.000000,,2013-05-05 14:11:00,
2013-05-05 04:21:00,63.0,59.0,-100.00,SE,138,3.0,8.0,87,0.00,,,0.00,0.000000,,2013-05-05 14:21:00,
2013-05-05 04:31:00,63.0,59.0,-100.00,SE,138,3.0,8.0,87,0.00,,,0.00,0.000000,,2013-05-05 14:31:00,
2013-05-05 05:01:00,62.0,60.0,-100.00,ENE,63,2.0,9.0,94,0.00,,,0.00,0.000000,,2013-05-05 15:01:00,
2013-05-05 05:11:00,62.0,60.0,-100.00,ENE,63,2.0,9.0,94,0.00,,,0.00,0.000000,,2013-05-05 15:11:00,
2013-05-05 05:21:00,62.0,60.0,-100.00,ENE,63,2.0,9.0,94,0.00,,,0.00,0.000000,,2013-05-05 15:21:00,
2013-05-05 05:32:00,62.0,60.0,-100.00,ENE,63,2.0,9.0,94,0.00,,,0.00,0.000000,,2013-05-05 15:32:00,
2013-05-05 06:03:00,62.0,62.0,-100.00,SE,140,2.0,9.0,99,0.00,,,-99.99,0.000000,,2013-05-05 16:03:00,
2013-05-05 06:12:00,62.0,62.0,-100.00,SE,140,2.0,9.0,99,0.00,,,-99.99,0.000000,,2013-05-05 16:12:00,
2013-05-05 06:22:00,62.0,62.0,-100.00,SE,140,2.0,9.0,99,0.00,,,-99.99,0.000000,,2013-05-05 16:22:00,
2013-05-05 06:32:00,62.0,62.0,-100.00,SE,140,2.0,9.0,99,0.00,,,-99.99,0.000000,,2013-05-05 16:32:00,
2013-05-05 07:02:00,63.0,63.0,-100.00,SE,140,3.0,10.0,100,0.05,,,0.05,9.000000,,2013-05-05 17:02:00,
2013-05-05 07:12:00,63.0,63.0,-100.00,SE,140,3.0,10.0,100,0.05,,,0.05,9.000000,,2013-05-05 17:12:00,
2013-05-05 07:23:00,63.0,63.0,-100.00,SE,140,3.0,10.0,100,0.05,,,0.05,9.000000,,2013-05-05 17:23:00,
2013-05-05 07:31:00,63.0,63.0,-100.00,SE,140,3.0,10.0,100,0.05,,,0.05,9.000000,,2013-05-05 17:31:00,
2013-05-05 08:01:00,62.0,62.0,-100.00,SE,138,4.0,8.0,100,0.01,,,0.06,40.000000,,2013-05-05 18:01:00,
2013-05-05 08:11:00,62.0,62.0,-100.00,SE,138,4.0,8.0,100,0.01,,,0.06,40.000000,,2013-05-05 18:11:00,
2013-05-05 08:21:00,62.0,62.0,-100.00,SE,138,4.0,8.0,100,0.01,,,0.06,40.000000,,2013-05-05 18:21:00,
2013-05-05 08:31:00,62.0,62.0,-100.00,SE,138,4.0,8.0,100,0.01,,,0.06,40.000000,,2013-05-05 18:31:00,
2013-05-05 09:01:00,64.0,64.0,-100.00,SE,143,2.0,8.0,100,0.00,,,0.06,192.000000,,2013-05-05 19:01:00,
2013-05-05 09:11:00,64.0,64.0,-100.00,SE,143,2.0,8.0,100,0.00,,,0.06,192.000000,,2013-05-05 19:11:00,
2013-05-05 09:21:00,64.0,64.0,-100.00,SE,143,2.0,8.0,100,0.00,,,0.06,192.000000,,2013-05-05 19:21:00,
2013-05-05 09:32:00,64.0,64.0,-100.00,SE,143,2.0,8.0,100,0.00,,,0.06,192.000000,,2013-05-05 19:32:00,
2013-05-05 10:01:00,69.0,66.0,-100.00,SSE,148,3.0,9.0,89,0.00,,,0.06,443.000000,,2013-05-05 20:01:00,
2013-05-05 10:11:00,69.0,66.0,-100.00,SSE,148,3.0,9.0,89,0.00,,,0.06,443.000000,,2013-05-05 20:11:00,
2013-05-05 10:21:00,69.0,66.0,-100.00,SSE,148,3.0,9.0,89,0.00,,,0.06,443.000000,,2013-05-05 20:21:00,
2013-05-05 10:31:00,69.0,66.0,-100.00,SSE,148,3.0,9.0,89,0.00,,,0.06,443.000000,,2013-05-05 20:31:00,
2013-05-05 11:01:00,72.0,66.0,-100.00,SSE,158,5.0,13.0,81,0.00,,,0.06,678.000000,,2013-05-05 21:01:00,
2013-05-05 11:11:00,72.0,66.0,-100.00,SSE,158,5.0,13.0,81,0.00,,,0.06,678.000000,,2013-05-05 21:11:00,
2013-05-05 11:21:00,72.0,66.0,-100.00,SSE,158,5.0,13.0,81,0.00,,,0.06,678.000000,,2013-05-05 21:21:00,
2013-05-05 11:32:00,72.0,66.0,-100.00,SSE,158,5.0,13.0,81,0.00,,,0.06,678.000000,,2013-05-05 21:32:00,
2013-05-05 12:02:00,71.0,65.0,-100.00,SSE,150,4.0,16.0,81,0.00,,,0.06,665.000000,,2013-05-05 22:02:00,
2013-05-05 12:12:00,71.0,65.0,-100.00,SSE,150,4.0,16.0,81,0.00,,,0.06,665.000000,,2013-05-05 22:12:00,
2013-05-05 12:22:00,71.0,65.0,-100.00,SSE,150,4.0,16.0,81,0.00,,,0.06,665.000000,,2013-05-05 22:22:00,
2013-05-05 12:33:00,71.0,65.0,-100.00,SSE,150,4.0,16.0,81,0.00,,,0.06,665.000000,,2013-05-05 22:33:00,
2013-05-05 13:02:00,70.0,65.0,-100.00,East,95,4.0,15.0,83,0.00,,,0.06,487.000000,,2013-05-05 23:02:00,
2013-05-05 13:11:00,70.0,65.0,-100.00,East,95,4.0,15.0,83,0.00,,,0.06,487.000000,,2013-05-05 23:11:00,
2013-05-05 13:21:00,70.0,65.0,-100.00,East,95,4.0,15.0,83,0.00,,,0.06,487.000000,,2013-05-05 23:21:00,
2013-05-05 13:31:00,70.0,65.0,-100.00,East,95,4.0,15.0,83,0.00,,,0.06,487.000000,,2013-05-05 23:31:00,
2013-05-05 14:01:00,66.0,66.0,-100.00,SSE,163,4.0,15.0,99,0.01,,,0.07,187.000000,,2013-05-06 00:01:00,
2013-05-05 14:11:00,66.0,66.0,-100.00,SSE,163,4.0,15.0,99,0.01,,,0.07,187.000000,,2013-05-06 00:11:00,
2013-05-05 14:21:00,66.0,66.0,-100.00,SSE,163,4.0,15.0,99,0.01,,,0.07,187.000000,,2013-05-06 00:21:00,
2013-05-05 14:31:00,66.0,66.0,-100.00,SSE,163,4.0,15.0,99,0.01,,,0.07,187.000000,,2013-05-06 00:31:00,
2013-05-05 15:01:00,66.0,66.0,-100.00,WSW,257,5.0,21.0,100,0.08,,,0.15,216.000000,,2013-05-06 01:01:00,
2013-05-05 15:11:00,66.0,66.0,-100.00,WSW,257,5.0,21.0,100,0.08,,,0.15,216.000000,,2013-05-06 01:11:00,
2013-05-05 15:21:00,66.0,66.0,-100.00,WSW,257,5.0,21.0,100,0.08,,,0.15,216.000000,,2013-05-06 01:21:00,
2013-05-05 15:31:00,66.0,66.0,-100.00,WSW,257,5.0,21.0,100,0.08,,,0.15,216.000000,,2013-05-06 01:31:00,
2013-05-05 16:01:00,64.0,64.0,-100.00,SSW,213,3.0,19.0,100,0.07,,,0.22,117.000000,,2013-05-06 02:01:00,
2013-05-05 16:11:00,64.0,64.0,-100.00,SSW,213,3.0,19.0,100,0.07,,,0.22,117.000000,,2013-05-06 02:11:00,
2013-05-05 16:21:00,64.0,64.0,-100.00,SSW,213,3.0,19.0,100,0.07,,,0.22,117.000000,,2013-05-06 02:21:00,
2013-05-05 16:31:00,64.0,64.0,-100.00,SSW,213,3.0,19.0,100,0.07,,,0.22,117.000000,,2013-05-06 02:31:00,
2013-05-05 17:01:00,61.0,61.0,-100.00,SSE,152,4.0,14.0,100,0.12,,,0.34,119.000000,,2013-05-06 03:01:00,
2013-05-05 17:11:00,61.0,61.0,-100.00,SSE,152,4.0,14.0,100,0.12,,,0.34,119.000000,,2013-05-06 03:11:00,
2013-05-05 17:22:00,61.0,61.0,-100.00,SSE,152,4.0,14.0,100,0.12,,,0.34,119.000000,,2013-05-06 03:22:00,
2013-05-05 17:33:00,61.0,61.0,-100.00,SSE,152,4.0,14.0,100,0.12,,,0.34,119.000000,,2013-05-06 03:33:00,
2013-05-05 18:02:00,62.0,62.0,-100.00,SSE,156,5.0,16.0,100,0.12,,,0.46,61.000000,,2013-05-06 04:02:00,
2013-05-05 18:12:00,62.0,62.0,-100.00,SSE,156,5.0,16.0,100,0.12,,,0.46,61.000000,,2013-05-06 04:12:00,
2013-05-05 18:23:00,62.0,62.0,-100.00,SSE,156,5.0,16.0,100,0.12,,,0.46,61.000000,,2013-05-06 04:23:00,
2013-05-05 18:32:00,62.0,62.0,-100.00,SSE,156,5.0,16.0,100,0.12,,,0.46,61.000000,,2013-05-06 04:32:00,
2013-05-05 19:02:00,63.0,63.0,-100.00,SSE,147,3.0,13.0,100,0.02,,,0.48,17.000000,,2013-05-06 05:02:00,
2013-05-05 19:12:00,63.0,63.0,-100.00,SSE,147,3.0,13.0,100,0.02,,,0.48,17.000000,,2013-05-06 05:12:00,
2013-05-05 19:22:00,63.0,63.0,-100.00,SSE,147,3.0,13.0,100,0.02,,,0.48,17.000000,,2013-05-06 05:22:00,
2013-05-05 19:32:00,63.0,63.0,-100.00,SSE,147,3.0,13.0,100,0.02,,,0.48,17.000000,,2013-05-06 05:32:00,
2013-05-05 20:02:00,62.0,62.0,-100.00,SSE,158,4.0,13.0,100,0.01,,,0.49,1.000000,,2013-05-06 06:02:00,
2013-05-05 20:12:00,62.0,62.0,-100.00,SSE,158,4.0,13.0,100,0.01,,,0.49,1.000000,,2013-05-06 06:12:00,
2013-05-05 20:21:00,62.0,62.0,-100.00,SSE,158,4.0,13.0,100,0.01,,,0.49,1.000000,,2013-05-06 06:21:00,
2013-05-05 20:31:00,62.0,62.0,-100.00,SSE,158,4.0,13.0,100,0.01,,,0.49,1.000000,,2013-05-06 06:31:00,
2013-05-05 21:01:00,63.0,63.0,-100.00,SSE,147,4.0,14.0,100,0.00,,,0.49,0.000000,,2013-05-06 07:01:00,
2013-05-05 21:11:00,63.0,63.0,-100.00,SSE,147,4.0,14.0,100,0.00,,,0.49,0.000000,,2013-05-06 07:11:00,
2013-05-05 21:22:00,63.0,63.0,-100.00,SSE,147,4.0,14.0,100,0.00,,,0.49,0.000000,,2013-05-06 07:22:00,
2013-05-05 21:31:00,63.0,63.0,-100.00,SSE,147,4.0,14.0,100,0.00,,,0.49,0.000000,,2013-05-06 07:31:00,
2013-05-05 22:01:00,61.0,61.0,-100.00,SE,145,3.0,11.0,100,0.03,,,0.52,,,2013-05-06 08:01:00,
2013-05-05 22:12:00,61.0,61.0,-100.00,SE,145,3.0,11.0,100,0.03,,,0.52,,,2013-05-06 08:12:00,
2013-05-05 22:22:00,61.0,61.0,-100.00,SE,145,3.0,11.0,100,0.03,,,0.52,,,2013-05-06 08:22:00,
2013-05-05 22:31:00,61.0,61.0,-100.00,SE,145,3.0,11.0,100,0.03,,,0.52,,,2013-05-06 08:31:00,
2013-05-05 23:01:00,61.0,61.0,-100.00,SSE,162,2.0,7.0,100,0.02,,,0.54,0.000000,,2013-05-06 09:01:00,
2013-05-05 23:11:00,61.0,61.0,-100.00,SSE,162,2.0,7.0,100,0.02,,,0.54,0.000000,,2013-05-06 09:11:00,
2013-05-05 23:22:00,61.0,61.0,-100.00,SSE,162,2.0,7.0,100,0.02,,,0.54,0.000000,,2013-05-06 09:22:00,
2013-05-05 23:32:00,61.0,61.0,-100.00,SSE,162,2.0,7.0,100,0.02,,,0.54,0.000000,,2013-05-06 09:32:00,